TimeCST,TemperatureF,Dew PointF,Humidity,Sea Level PressureIn,VisibilityMPH,Wind Direction,Wind SpeedMPH,Gust SpeedMPH,PrecipitationIn,Events,Conditions,WindDirDegrees,DateUTC
7:35 AM,17.6,14.0,86,29.81,10.0,NW,17.3,-,N/A,,Clear,310,2012-12-06 13:35:00
7:55 AM,17.6,14.0,86,29.82,10.0,WNW,13.8,21.9,N/A,,Scattered Clouds,300,2012-12-06 13:55:00
8:15 AM,15.8,14.0,93,29.82,10.0,NW,17.3,23.0,N/A,,Scattered Clouds,310,2012-12-06 14:15:00
8:35 AM,15.8,14.0,93,29.82,10.0,WNW,13.8,21.9,N/A,,Partly Cloudy,300,2012-12-06 14:35:00
9:15 AM,15.8,12.2,86,29.84,10.0,NW,15.0,18.4,N/A,,Clear,310,2012-12-06 15:15:00
9:35 AM,17.6,14.0,86,29.85,10.0,NW,19.6,-,N/A,,Clear,320,2012-12-06 15:35:00
9:55 AM,17.6,14.0,86,29.86,10.0,WNW,13.8,-,N/A,,Clear,300,2012-12-06 15:55:00
10:15 AM,17.6,14.0,86,29.87,10.0,WNW,11.5,-,N/A,,Clear,290,2012-12-06 16:15:00
10:35 AM,19.4,15.8,86,29.87,10.0,WNW,13.8,19.6,N/A,,Clear,300,2012-12-06 16:35:00
10:55 AM,19.4,15.8,86,29.88,10.0,WNW,8.1,-,N/A,,Clear,290,2012-12-06 16:55:00
11:15 AM,21.2,17.6,86,29.88,10.0,West,6.9,-,N/A,,Clear,270,2012-12-06 17:15:00
11:35 AM,21.2,17.6,86,29.87,10.0,West,13.8,-,N/A,,Clear,270,2012-12-06 17:35:00
11:55 AM,23.0,17.6,80,29.87,10.0,West,10.4,-,N/A,,Clear,280,2012-12-06 17:55:00
12:15 PM,23.0,17.6,80,29.88,10.0,West,16.1,-,N/A,,Clear,260,2012-12-06 18:15:00
12:35 PM,21.2,17.6,86,29.88,10.0,West,15.0,20.7,N/A,,Scattered Clouds,280,2012-12-06 18:35:00
12:55 PM,23.0,19.4,86,29.87,10.0,West,20.7,24.2,N/A,,Mostly Cloudy,280,2012-12-06 18:55:00
1:15 PM,23.0,21.2,93,29.87,10.0,WNW,16.1,-,N/A,,Overcast,290,2012-12-06 19:15:00
1:35 PM,23.0,21.2,93,29.87,10.0,West,16.1,25.3,N/A,,Overcast,280,2012-12-06 19:35:00
1:55 PM,24.8,23.0,93,29.88,10.0,West,13.8,-,N/A,,Overcast,280,2012-12-06 19:55:00
2:15 PM,24.8,23.0,93,29.87,10.0,West,16.1,24.2,N/A,,Overcast,280,2012-12-06 20:15:00
2:35 PM,24.8,23.0,93,29.87,10.0,West,18.4,31.1,N/A,,Overcast,280,2012-12-06 20:35:00
2:55 PM,24.8,21.2,86,29.87,10.0,WNW,20.7,-,N/A,,Mostly Cloudy,290,2012-12-06 20:55:00
3:15 PM,24.8,21.2,86,29.87,10.0,West,17.3,-,N/A,,Mostly Cloudy,280,2012-12-06 21:15:00
3:35 PM,23.0,19.4,86,29.88,10.0,West,16.1,24.2,N/A,,Scattered Clouds,280,2012-12-06 21:35:00
3:55 PM,23.0,19.4,86,29.88,10.0,West,16.1,-,N/A,,Clear,260,2012-12-06 21:55:00
4:15 PM,23.0,19.4,86,29.88,10.0,West,11.5,-,N/A,,Clear,260,2012-12-06 22:15:00
4:35 PM,21.2,17.6,86,29.89,10.0,West,9.2,-,N/A,,Clear,260,2012-12-06 22:35:00
4:55 PM,19.4,17.6,93,29.90,10.0,West,9.2,-,N/A,,Clear,260,2012-12-06 22:55:00
5:15 PM,19.4,15.8,86,29.90,10.0,West,9.2,-,N/A,,Clear,270,2012-12-06 23:15:00
5:35 PM,17.6,15.8,93,29.90,10.0,West,12.7,-,N/A,,Clear,270,2012-12-06 23:35:00
5:55 PM,17.6,14.0,86,29.90,10.0,West,15.0,-,N/A,,Clear,270,2012-12-06 23:55:00
6:15 PM,17.6,15.8,93,29.90,10.0,West,15.0,-,N/A,,Clear,270,2012-12-07 00:15:00
6:35 PM,15.8,15.8,100,29.90,10.0,West,12.7,-,N/A,,Clear,270,2012-12-07 00:35:00
6:55 PM,15.8,15.8,100,29.90,10.0,West,12.7,-,N/A,,Clear,270,2012-12-07 00:55:00
7:15 PM,15.8,15.8,100,29.91,10.0,West,10.4,-,N/A,,Clear,280,2012-12-07 01:15:00
7:35 PM,15.8,15.8,100,29.91,10.0,WNW,9.2,-,N/A,,Partly Cloudy,290,2012-12-07 01:35:00
7:55 PM,17.6,15.8,93,29.91,10.0,NW,11.5,-,N/A,,Scattered Clouds,310,2012-12-07 01:55:00
8:35 PM,15.8,14.0,93,29.92,10.0,NW,10.4,-,N/A,,Partly Cloudy,320,2012-12-07 02:35:00
8:55 PM,15.8,12.2,86,29.92,10.0,NW,12.7,-,N/A,,Clear,320,2012-12-07 02:55:00
9:15 PM,14.0,10.4,86,29.93,10.0,NNW,13.8,-,N/A,,Clear,330,2012-12-07 03:15:00
9:35 PM,14.0,10.4,86,29.94,10.0,NNW,15.0,-,N/A,,Clear,340,2012-12-07 03:35:00
9:55 PM,12.2,10.4,92,29.95,10.0,NNW,15.0,20.7,N/A,,Clear,330,2012-12-07 03:55:00
10:15 PM,10.4,8.6,92,29.95,10.0,NW,9.2,-,N/A,,Clear,310,2012-12-07 04:15:00
10:35 PM,10.4,6.8,85,29.96,10.0,NNW,8.1,-,N/A,,Clear,330,2012-12-07 04:35:00
10:55 PM,8.6,5.0,85,29.96,10.0,NNW,10.4,-,N/A,,Clear,340,2012-12-07 04:55:00
11:15 PM,6.8,5.0,92,29.97,10.0,NNW,9.2,-,N/A,,Clear,330,2012-12-07 05:15:00
11:35 PM,6.8,5.0,92,29.97,10.0,NW,12.7,-,N/A,,Clear,320,2012-12-07 05:35:00
11:55 PM,6.8,3.2,85,29.97,10.0,NW,8.1,-,N/A,,Clear,320,2012-12-07 05:55:00